Time,TemperatureF,DewpointF,PressureIn,WindDirection,WindDirectionDegrees,WindSpeedMPH,WindSpeedGustMPH,Humidity,HourlyPrecipIn,Conditions,Clouds,dailyrainin,SoftwareType,DateUTC
2013-07-02 00:02:00,62.3,50.3,29.90,SW,225,0.4,1.1,65,0.00,,,0.00,WUHU216HW,2013-07-01 22:02:00,
2013-07-02 00:07:00,62.1,50.2,29.90,SW,225,0.2,1.1,65,0.00,,,0.00,WUHU216HW,2013-07-01 22:07:00,
2013-07-02 00:12:00,61.7,49.9,29.90,SW,225,0.0,1.1,65,0.00,,,0.00,WUHU216HW,2013-07-01 22:12:00,
2013-07-02 00:17:00,61.6,50.1,29.90,SW,225,0.0,0.2,66,0.00,,,0.00,WUHU216HW,2013-07-01 22:17:00,
2013-07-02 00:18:00,61.6,50.1,29.90,SW,225,0.0,0.2,66,0.00,,,0.00,WUHU216HW,2013-07-01 22:18:00,
2013-07-02 00:23:00,61.2,50.2,29.90,SW,225,0.0,0.0,67,0.00,,,0.00,WUHU216HW,2013-07-01 22:23:00,
2013-07-02 00:28:00,60.8,49.5,29.90,SW,225,0.0,0.2,66,0.00,,,0.00,WUHU216HW,2013-07-01 22:28:00,
2013-07-02 00:33:00,60.8,49.9,29.90,WSW,248,0.2,1.6,67,0.00,,,0.00,WUHU216HW,2013-07-01 22:33:00,
2013-07-02 00:38:00,60.5,49.5,29.90,WSW,248,0.4,1.6,67,0.00,,,0.00,WUHU216HW,2013-07-01 22:38:00,
2013-07-02 00:43:00,60.3,49.8,29.90,WSW,248,0.0,0.4,68,0.00,,,0.00,WUHU216HW,2013-07-01 22:43:00,
2013-07-02 00:48:00,60.1,49.6,29.90,WSW,248,0.0,0.2,68,0.00,,,0.00,WUHU216HW,2013-07-01 22:48:00,
2013-07-02 00:53:00,59.9,49.8,29.90,WSW,248,0.0,0.2,69,0.00,,,0.00,WUHU216HW,2013-07-01 22:53:00,
2013-07-02 00:58:00,59.8,49.6,29.90,WSW,248,0.0,0.2,69,0.00,,,0.00,WUHU216HW,2013-07-01 22:58:00,
2013-07-02 01:03:00,59.6,49.4,29.90,WSW,248,0.0,0.2,69,0.00,,,0.00,WUHU216HW,2013-07-01 23:03:00,
2013-07-02 01:08:00,59.6,49.9,29.90,WSW,248,0.0,0.2,70,0.00,,,0.00,WUHU216HW,2013-07-01 23:08:00,
2013-07-02 01:13:00,59.6,49.9,29.89,SW,225,1.1,1.1,70,0.00,,,0.00,WUHU216HW,2013-07-01 23:13:00,
2013-07-02 01:18:00,59.6,49.9,29.89,SSW,203,1.8,2.5,70,0.00,,,0.00,WUHU216HW,2013-07-01 23:18:00,
2013-07-02 01:23:00,59.8,49.6,29.89,SW,225,2.7,2.7,69,0.00,,,0.00,WUHU216HW,2013-07-01 23:23:00,
2013-07-02 01:28:00,59.9,49.8,29.89,SW,225,1.8,2.7,69,0.00,,,0.00,WUHU216HW,2013-07-01 23:28:00,
2013-07-02 01:33:00,60.1,50.0,29.89,SSW,203,1.3,2.9,69,0.00,,,0.00,WUHU216HW,2013-07-01 23:33:00,
2013-07-02 01:38:00,60.1,50.0,29.89,SW,225,1.8,2.9,69,0.00,,,0.00,WUHU216HW,2013-07-01 23:38:00,
2013-07-02 01:43:00,60.1,49.6,29.89,WSW,248,0.4,2.2,68,0.00,,,0.00,WUHU216HW,2013-07-01 23:43:00,
2013-07-02 01:48:00,59.9,49.8,29.89,NNW,338,0.2,1.8,69,0.00,,,0.00,WUHU216HW,2013-07-01 23:48:00,
2013-07-02 01:53:00,59.6,49.4,29.89,SE,135,0.4,1.1,69,0.00,,,0.00,WUHU216HW,2013-07-01 23:53:00,
2013-07-02 01:58:00,59.2,49.5,29.89,SW,225,2.0,2.0,70,0.00,,,0.00,WUHU216HW,2013-07-01 23:58:00,
2013-07-02 02:03:00,59.0,49.3,29.89,WSW,248,1.1,2.7,70,0.00,,,0.00,WUHU216HW,2013-07-02 00:03:00,
2013-07-02 02:08:00,58.9,49.5,29.89,NNW,338,1.6,2.7,71,0.00,,,0.00,WUHU216HW,2013-07-02 00:08:00,
2013-07-02 02:13:00,58.7,49.3,29.89,NW,315,0.4,2.5,71,0.00,,,0.00,WUHU216HW,2013-07-02 00:13:00,
2013-07-02 02:18:00,58.5,49.1,29.88,NW,315,0.2,2.5,71,0.00,,,0.00,WUHU216HW,2013-07-02 00:18:00,
2013-07-02 02:23:00,58.3,49.3,29.88,South,180,0.0,2.0,72,0.00,,,0.00,WUHU216HW,2013-07-02 00:23:00,
2013-07-02 02:28:00,58.1,49.1,29.88,SW,225,0.9,2.9,72,0.00,,,0.00,WUHU216HW,2013-07-02 00:28:00,
2013-07-02 02:33:00,58.0,49.3,29.87,WSW,248,2.9,2.9,73,0.00,,,0.00,WUHU216HW,2013-07-02 00:33:00,
2013-07-02 02:38:00,58.5,49.5,29.87,SW,225,3.1,4.0,72,0.00,,,0.00,WUHU216HW,2013-07-02 00:38:00,
2013-07-02 02:43:00,59.4,50.0,29.87,SE,135,3.6,4.7,71,0.00,,,0.00,WUHU216HW,2013-07-02 00:43:00,
2013-07-02 02:48:00,59.9,49.8,29.87,SW,225,4.0,4.7,69,0.00,,,0.00,WUHU216HW,2013-07-02 00:48:00,
2013-07-02 02:53:00,60.3,49.8,29.87,WSW,248,3.8,6.3,68,0.00,,,0.00,WUHU216HW,2013-07-02 00:53:00,
2013-07-02 02:58:00,60.5,50.0,29.87,NW,315,1.1,6.3,68,0.00,,,0.00,WUHU216HW,2013-07-02 00:58:00,
2013-07-02 03:03:00,59.8,49.6,29.87,West,270,1.1,4.7,69,0.00,,,0.00,WUHU216HW,2013-07-02 01:03:00,
2013-07-02 03:08:00,58.7,49.0,29.87,SW,225,1.1,2.0,70,0.00,,,0.00,WUHU216HW,2013-07-02 01:08:00,
2013-07-02 03:13:00,57.8,48.8,29.86,North,0,1.1,2.5,72,0.00,,,0.00,WUHU216HW,2013-07-02 01:13:00,
2013-07-02 03:18:00,57.2,48.6,29.86,SE,135,1.1,2.5,73,0.00,,,0.00,WUHU216HW,2013-07-02 01:18:00,
2013-07-02 03:23:00,56.9,48.2,29.86,SE,135,1.8,1.8,73,0.00,,,0.00,WUHU216HW,2013-07-02 01:23:00,
2013-07-02 03:28:00,56.7,48.4,29.86,SE,135,0.9,1.8,74,0.00,,,0.00,WUHU216HW,2013-07-02 01:28:00,
2013-07-02 03:33:00,56.7,48.4,29.86,ESE,113,0.4,1.8,74,0.00,,,0.00,WUHU216HW,2013-07-02 01:33:00,
2013-07-02 03:38:00,56.7,48.4,29.86,NW,315,0.0,1.6,74,0.00,,,0.00,WUHU216HW,2013-07-02 01:38:00,
2013-07-02 03:43:00,56.5,48.6,29.86,SE,135,0.0,1.1,75,0.00,,,0.00,WUHU216HW,2013-07-02 01:43:00,
2013-07-02 03:49:00,56.5,48.6,29.86,ESE,113,0.0,1.1,75,0.00,,,0.00,WUHU216HW,2013-07-02 01:49:00,
2013-07-02 03:54:00,56.5,48.6,29.86,ESE,113,0.0,1.1,75,0.00,,,0.00,WUHU216HW,2013-07-02 01:54:00,
2013-07-02 03:59:00,56.5,48.6,29.86,NW,315,1.6,1.6,75,0.00,,,0.00,WUHU216HW,2013-07-02 01:59:00,
2013-07-02 04:04:00,56.3,48.5,29.86,SW,225,0.7,1.6,75,0.00,,,0.00,WUHU216HW,2013-07-02 02:04:00,
2013-07-02 04:09:00,56.2,48.3,29.86,SW,225,0.4,1.1,75,0.00,,,0.00,WUHU216HW,2013-07-02 02:09:00,
2013-07-02 04:14:00,56.2,48.6,29.86,SW,225,0.0,1.1,76,0.00,,,0.00,WUHU216HW,2013-07-02 02:14:00,
2013-07-02 04:19:00,56.2,48.6,29.86,North,0,0.2,1.1,76,0.00,,,0.00,WUHU216HW,2013-07-02 02:19:00,
2013-07-02 04:24:00,56.2,48.6,29.86,North,0,0.0,1.1,76,0.00,,,0.00,WUHU216HW,2013-07-02 02:24:00,
2013-07-02 04:29:00,56.0,48.5,29.86,SW,225,0.0,1.1,76,0.00,,,0.00,WUHU216HW,2013-07-02 02:29:00,
2013-07-02 04:34:00,55.8,48.3,29.86,SW,225,0.2,1.1,76,0.00,,,0.00,WUHU216HW,2013-07-02 02:34:00,
2013-07-02 04:39:00,55.8,48.3,29.86,WSW,248,0.0,1.1,76,0.00,,,0.00,WUHU216HW,2013-07-02 02:39:00,
2013-07-02 04:44:00,55.8,48.3,29.85,SW,225,0.9,4.0,76,0.00,,,0.00,WUHU216HW,2013-07-02 02:44:00,
2013-07-02 04:49:00,56.3,49.1,29.86,SW,225,4.7,6.7,77,0.00,,,0.00,WUHU216HW,2013-07-02 02:49:00,
2013-07-02 04:54:00,57.2,49.7,29.86,SSE,158,1.1,6.7,76,0.00,,,0.00,WUHU216HW,2013-07-02 02:54:00,
2013-07-02 04:59:00,58.0,50.0,29.85,SW,225,4.0,6.5,75,0.00,,,0.00,WUHU216HW,2013-07-02 02:59:00,
2013-07-02 05:04:00,58.3,50.0,29.86,NNE,23,2.2,6.5,74,0.00,,,0.00,WUHU216HW,2013-07-02 03:04:00,
2013-07-02 05:09:00,57.8,49.5,29.86,WNW,293,0.9,4.7,74,0.00,,,0.00,WUHU216HW,2013-07-02 03:09:00,
2013-07-02 05:14:00,57.4,49.1,29.86,NNE,23,1.3,2.7,74,0.00,,,0.00,WUHU216HW,2013-07-02 03:14:00,
2013-07-02 05:19:00,57.2,49.3,29.86,North,0,1.3,2.2,75,0.00,,,0.00,WUHU216HW,2013-07-02 03:19:00,
2013-07-02 05:24:00,57.1,49.1,29.86,North,0,0.0,2.9,75,0.00,,,0.00,WUHU216HW,2013-07-02 03:24:00,
2013-07-02 05:29:00,57.1,49.1,29.86,North,0,0.4,2.9,75,0.00,,,0.00,WUHU216HW,2013-07-02 03:29:00,
2013-07-02 05:34:00,57.2,49.7,29.86,North,0,0.4,1.8,76,0.00,,,0.00,WUHU216HW,2013-07-02 03:34:00,
2013-07-02 05:39:00,57.2,49.3,29.86,North,0,1.8,1.8,75,0.00,,,0.00,WUHU216HW,2013-07-02 03:39:00,
2013-07-02 05:44:00,57.2,49.7,29.86,North,0,0.0,1.8,76,0.00,,,0.00,WUHU216HW,2013-07-02 03:44:00,
2013-07-02 05:49:00,57.2,49.7,29.86,North,0,0.0,1.8,76,0.00,,,0.00,WUHU216HW,2013-07-02 03:49:00,
2013-07-02 05:54:00,57.4,49.9,29.86,East,90,0.4,0.4,76,0.00,,,0.00,WUHU216HW,2013-07-02 03:54:00,
2013-07-02 05:59:00,57.6,50.0,29.86,East,90,0.0,0.4,76,0.00,,,0.00,WUHU216HW,2013-07-02 03:59:00,
2013-07-02 06:01:00,57.6,50.0,29.86,East,90,0.0,0.4,76,0.00,,,0.00,WUHU216HW,2013-07-02 04:01:00,
2013-07-02 06:07:00,57.8,50.2,29.86,East,90,0.0,0.2,76,0.00,,,0.00,WUHU216HW,2013-07-02 04:07:00,
2013-07-02 06:12:00,58.0,50.4,29.86,NNE,23,0.4,0.4,76,0.00,,,0.00,WUHU216HW,2013-07-02 04:12:00,
2013-07-02 06:17:00,58.0,50.4,29.86,NNE,23,0.0,0.7,76,0.00,,,0.00,WUHU216HW,2013-07-02 04:17:00,
2013-07-02 06:22:00,58.1,50.6,29.86,WSW,248,0.2,0.7,76,0.00,,,0.00,WUHU216HW,2013-07-02 04:22:00,
2013-07-02 06:27:00,58.1,50.9,29.86,NW,315,0.0,0.7,77,0.00,,,0.00,WUHU216HW,2013-07-02 04:27:00,
2013-07-02 06:32:00,58.5,51.3,29.86,SW,225,1.1,1.1,77,0.00,,,0.00,WUHU216HW,2013-07-02 04:32:00,
2013-07-02 06:37:00,58.7,51.5,29.86,WSW,248,0.4,1.1,77,0.00,,,0.00,WUHU216HW,2013-07-02 04:37:00,
2013-07-02 06:41:00,58.9,51.7,29.86,SSW,203,2.5,2.5,77,0.00,,,0.00,WUHU216HW,2013-07-02 04:41:00,
2013-07-02 06:47:00,59.2,52.4,29.87,North,0,1.8,2.5,78,0.00,,,0.00,WUHU216HW,2013-07-02 04:47:00,
2013-07-02 06:52:00,59.6,52.4,29.87,WNW,293,0.9,2.5,77,0.00,,,0.00,WUHU216HW,2013-07-02 04:52:00,
2013-07-02 06:56:00,59.2,51.7,29.87,WNW,293,0.0,1.6,76,0.00,,,0.00,WUHU216HW,2013-07-02 04:56:00,
2013-07-02 07:01:00,59.0,51.5,29.87,WNW,293,0.2,0.9,76,0.00,,,0.00,WUHU216HW,2013-07-02 05:01:00,
2013-07-02 07:06:00,58.9,51.3,29.87,NW,315,0.0,0.4,76,0.00,,,0.00,WUHU216HW,2013-07-02 05:06:00,
2013-07-02 07:12:00,58.7,51.1,29.88,North,0,0.4,1.3,76,0.00,,,0.00,WUHU216HW,2013-07-02 05:12:00,
2013-07-02 07:16:00,58.7,51.1,29.88,West,270,0.0,1.3,76,0.00,,,0.00,WUHU216HW,2013-07-02 05:16:00,
2013-07-02 07:22:00,59.0,51.5,29.87,SSE,158,0.0,0.7,76,0.00,,,0.00,WUHU216HW,2013-07-02 05:22:00,
2013-07-02 07:27:00,59.2,51.7,29.87,SSE,158,0.4,0.4,76,0.00,,,0.00,WUHU216HW,2013-07-02 05:27:00,
2013-07-02 07:32:00,59.4,51.8,29.87,SW,225,0.7,1.1,76,0.00,,,0.00,WUHU216HW,2013-07-02 05:32:00,
2013-07-02 07:37:00,59.6,52.0,29.87,WNW,293,1.1,1.1,76,0.00,,,0.00,WUHU216HW,2013-07-02 05:37:00,
2013-07-02 07:42:00,59.9,52.4,29.87,NW,315,0.0,2.5,76,0.00,,,0.00,WUHU216HW,2013-07-02 05:42:00,
2013-07-02 07:47:00,60.3,52.7,29.87,North,0,0.2,2.5,76,0.00,,,0.00,WUHU216HW,2013-07-02 05:47:00,
2013-07-02 07:52:00,60.7,53.1,29.88,WNW,293,0.2,1.1,76,0.00,,,0.00,WUHU216HW,2013-07-02 05:52:00,
2013-07-02 07:57:00,60.8,53.3,29.88,SSW,203,0.0,1.1,76,0.00,,,0.00,WUHU216HW,2013-07-02 05:57:00,
2013-07-02 08:02:00,61.2,53.7,29.88,SSW,203,0.2,1.1,76,0.00,,,0.00,WUHU216HW,2013-07-02 06:02:00,
2013-07-02 08:07:00,61.4,53.7,29.87,SSE,158,0.0,1.1,76,0.00,,,0.00,WUHU216HW,2013-07-02 06:07:00,
2013-07-02 08:12:00,61.7,54.1,29.87,North,0,1.3,1.8,76,0.00,,,0.00,WUHU216HW,2013-07-02 06:12:00,
2013-07-02 08:17:00,61.9,54.3,29.87,SW,225,0.0,1.8,76,0.00,,,0.00,WUHU216HW,2013-07-02 06:17:00,
2013-07-02 08:22:00,62.3,54.5,29.87,North,0,1.3,1.8,76,0.00,,,0.00,WUHU216HW,2013-07-02 06:22:00,
2013-07-02 08:27:00,62.6,54.9,29.87,NNW,338,2.7,2.7,76,0.00,,,0.00,WUHU216HW,2013-07-02 06:27:00,
2013-07-02 08:32:00,63.0,55.3,29.87,North,0,1.6,3.4,76,0.00,,,0.00,WUHU216HW,2013-07-02 06:32:00,
2013-07-02 08:37:00,63.4,55.6,29.88,NNE,23,2.0,3.4,76,0.00,,,0.00,WUHU216HW,2013-07-02 06:37:00,
2013-07-02 08:42:00,63.5,56.2,29.88,NNW,338,0.4,2.5,77,0.00,,,0.00,WUHU216HW,2013-07-02 06:42:00,
2013-07-02 08:47:00,63.7,55.6,29.88,SSW,203,0.7,2.5,75,0.00,,,0.00,WUHU216HW,2013-07-02 06:47:00,
2013-07-02 08:52:00,63.9,55.8,29.87,WSW,248,1.3,2.2,75,0.00,,,0.00,WUHU216HW,2013-07-02 06:52:00,
2013-07-02 08:57:00,64.1,55.6,29.87,SW,225,0.7,2.2,74,0.00,,,0.00,WUHU216HW,2013-07-02 06:57:00,
2013-07-02 09:02:00,64.4,55.6,29.88,North,0,0.4,1.8,73,0.00,,,0.00,WUHU216HW,2013-07-02 07:02:00,
2013-07-02 09:07:00,64.6,56.2,29.87,North,0,0.2,1.8,74,0.00,,,0.00,WUHU216HW,2013-07-02 07:07:00,
2013-07-02 09:12:00,65.0,56.2,29.87,SW,225,0.4,1.3,73,0.00,,,0.00,WUHU216HW,2013-07-02 07:12:00,
2013-07-02 09:17:00,65.5,56.3,29.87,SW,225,0.4,1.6,72,0.00,,,0.00,WUHU216HW,2013-07-02 07:17:00,
2013-07-02 09:22:00,66.1,56.3,29.87,North,0,0.4,1.6,71,0.00,,,0.00,WUHU216HW,2013-07-02 07:22:00,
2013-07-02 09:27:00,66.6,56.1,29.87,West,270,0.4,1.6,69,0.00,,,0.00,WUHU216HW,2013-07-02 07:27:00,
2013-07-02 09:32:00,67.5,56.6,29.87,NW,315,0.2,1.1,68,0.00,,,0.00,WUHU216HW,2013-07-02 07:32:00,
2013-07-02 09:37:00,68.4,57.0,29.86,North,0,1.8,1.8,67,0.00,,,0.00,WUHU216HW,2013-07-02 07:37:00,
2013-07-02 09:42:00,69.1,56.8,29.86,SSE,158,1.1,1.8,65,0.00,,,0.00,WUHU216HW,2013-07-02 07:42:00,
2013-07-02 09:47:00,69.8,56.7,29.86,SW,225,0.2,3.4,63,0.00,,,0.00,WUHU216HW,2013-07-02 07:47:00,
2013-07-02 09:52:00,70.4,57.2,29.86,North,0,1.3,3.4,63,0.00,,,0.00,WUHU216HW,2013-07-02 07:52:00,
2013-07-02 09:57:00,70.7,56.7,29.86,North,0,2.5,2.5,61,0.00,,,0.00,WUHU216HW,2013-07-02 07:57:00,
2013-07-02 10:02:00,71.1,57.0,29.86,North,0,1.1,3.6,61,0.00,,,0.00,WUHU216HW,2013-07-02 08:02:00,
2013-07-02 10:07:00,71.5,57.3,29.86,SSW,203,1.3,3.6,61,0.00,,,0.00,WUHU216HW,2013-07-02 08:07:00,
2013-07-02 10:12:00,72.0,58.2,29.86,SSW,203,0.9,3.1,62,0.00,,,0.00,WUHU216HW,2013-07-02 08:12:00,
2013-07-02 10:18:00,72.5,58.3,29.86,NW,315,3.4,3.4,61,0.00,,,0.00,WUHU216HW,2013-07-02 08:18:00,
2013-07-02 10:23:00,72.9,58.7,29.86,West,270,1.1,3.4,61,0.00,,,0.00,WUHU216HW,2013-07-02 08:23:00,
2013-07-02 10:28:00,73.3,58.5,29.86,NW,315,1.1,2.9,60,0.00,,,0.00,WUHU216HW,2013-07-02 08:28:00,
2013-07-02 10:33:00,73.8,59.0,29.86,West,270,1.3,2.9,60,0.00,,,0.00,WUHU216HW,2013-07-02 08:33:00,
2013-07-02 10:38:00,74.2,58.9,29.86,SW,225,0.4,2.2,59,0.00,,,0.00,WUHU216HW,2013-07-02 08:38:00,
2013-07-02 10:43:00,74.5,58.8,29.86,SSW,203,1.8,2.2,58,0.00,,,0.00,WUHU216HW,2013-07-02 08:43:00,
2013-07-02 10:48:00,74.9,59.1,29.86,NNW,338,2.0,2.2,58,0.00,,,0.00,WUHU216HW,2013-07-02 08:48:00,
2013-07-02 10:53:00,75.1,59.3,29.86,West,270,0.9,4.0,58,0.00,,,0.00,WUHU216HW,2013-07-02 08:53:00,
2013-07-02 10:58:00,75.4,58.6,29.86,NW,315,1.8,4.0,56,0.00,,,0.00,WUHU216HW,2013-07-02 08:58:00,
2013-07-02 11:03:00,75.6,59.3,29.86,West,270,2.5,3.8,57,0.00,,,0.00,WUHU216HW,2013-07-02 09:03:00,
2013-07-02 11:08:00,75.6,58.3,29.85,NW,315,1.8,2.7,55,0.00,,,0.00,WUHU216HW,2013-07-02 09:08:00,
2013-07-02 11:13:00,75.8,58.4,29.86,NNE,23,2.5,2.7,55,0.00,,,0.00,WUHU216HW,2013-07-02 09:13:00,
2013-07-02 11:18:00,76.1,58.8,29.85,NW,315,1.8,2.5,55,0.00,,,0.00,WUHU216HW,2013-07-02 09:18:00,
2013-07-02 11:23:00,76.5,59.6,29.85,North,0,0.9,2.5,56,0.00,,,0.00,WUHU216HW,2013-07-02 09:23:00,
2013-07-02 11:28:00,76.7,58.8,29.85,West,270,1.1,3.1,54,0.00,,,0.00,WUHU216HW,2013-07-02 09:28:00,
2013-07-02 11:33:00,77.0,58.6,29.85,NW,315,3.1,3.1,53,0.00,,,0.00,WUHU216HW,2013-07-02 09:33:00,
2013-07-02 11:38:00,77.2,59.2,29.85,West,270,0.9,3.4,54,0.00,,,0.00,WUHU216HW,2013-07-02 09:38:00,
2013-07-02 11:43:00,77.6,59.6,29.85,WSW,248,1.3,3.4,54,0.00,,,0.00,WUHU216HW,2013-07-02 09:43:00,
2013-07-02 11:48:00,78.1,59.0,29.85,WSW,248,0.7,5.1,52,0.00,,,0.00,WUHU216HW,2013-07-02 09:48:00,
2013-07-02 11:53:00,78.5,59.4,29.85,SSE,158,1.6,5.1,52,0.00,,,0.00,WUHU216HW,2013-07-02 09:53:00,
2013-07-02 11:58:00,78.7,59.1,29.85,NW,315,2.0,3.6,51,0.00,,,0.00,WUHU216HW,2013-07-02 09:58:00,
2013-07-02 12:03:00,78.3,57.6,29.85,WNW,293,0.4,3.6,49,0.00,,,0.00,WUHU216HW,2013-07-02 10:03:00,
2013-07-02 12:08:00,78.1,57.4,29.85,SW,225,1.3,3.6,49,0.00,,,0.00,WUHU216HW,2013-07-02 10:08:00,
2013-07-02 12:13:00,78.1,56.8,29.85,North,0,1.1,3.1,48,0.00,,,0.00,WUHU216HW,2013-07-02 10:13:00,
2013-07-02 12:18:00,78.1,56.8,29.85,NW,315,1.3,3.4,48,0.00,,,0.00,WUHU216HW,2013-07-02 10:18:00,
2013-07-02 12:23:00,78.3,57.0,29.85,WSW,248,0.9,3.4,48,0.00,,,0.00,WUHU216HW,2013-07-02 10:23:00,
2013-07-02 12:28:00,78.8,56.9,29.85,WSW,248,1.3,2.7,47,0.00,,,0.00,WUHU216HW,2013-07-02 10:28:00,
2013-07-02 12:33:00,79.0,57.6,29.84,NW,315,4.7,4.7,48,0.00,,,0.00,WUHU216HW,2013-07-02 10:33:00,
2013-07-02 12:38:00,79.0,57.0,29.84,SW,225,1.6,4.7,47,0.00,,,0.00,WUHU216HW,2013-07-02 10:38:00,
2013-07-02 12:43:00,79.2,56.5,29.84,WNW,293,1.1,3.1,46,0.00,,,0.00,WUHU216HW,2013-07-02 10:43:00,
2013-07-02 12:48:00,79.2,57.2,29.84,WNW,293,0.9,4.3,47,0.00,,,0.00,WUHU216HW,2013-07-02 10:48:00,
2013-07-02 12:53:00,79.2,57.2,29.85,NW,315,3.6,4.3,47,0.00,,,0.00,WUHU216HW,2013-07-02 10:53:00,
2013-07-02 12:58:00,79.2,57.2,29.84,WNW,293,2.5,3.6,47,0.00,,,0.00,WUHU216HW,2013-07-02 10:58:00,
2013-07-02 13:03:00,79.0,56.4,29.84,NW,315,2.2,3.8,46,0.00,,,0.00,WUHU216HW,2013-07-02 11:03:00,
2013-07-02 13:08:00,79.2,56.5,29.84,NW,315,1.8,4.3,46,0.00,,,0.00,WUHU216HW,2013-07-02 11:08:00,
2013-07-02 13:13:00,79.2,56.5,29.84,North,0,2.7,5.4,46,0.00,,,0.00,WUHU216HW,2013-07-02 11:13:00,
2013-07-02 13:18:00,79.0,56.4,29.84,NW,315,6.3,6.3,46,0.00,,,0.00,WUHU216HW,2013-07-02 11:18:00,
2013-07-02 13:23:00,79.2,57.8,29.84,NW,315,2.5,6.3,48,0.00,,,0.00,WUHU216HW,2013-07-02 11:23:00,
2013-07-02 13:28:00,79.6,58.2,29.83,WSW,248,4.7,4.7,48,0.00,,,0.00,WUHU216HW,2013-07-02 11:28:00,
2013-07-02 13:33:00,79.9,58.4,29.83,West,270,0.9,4.7,48,0.00,,,0.00,WUHU216HW,2013-07-02 11:33:00,
2013-07-02 13:38:00,80.3,58.1,29.83,NW,315,0.7,4.3,47,0.00,,,0.00,WUHU216HW,2013-07-02 11:38:00,
2013-07-02 13:43:00,80.5,59.0,29.83,NW,315,0.9,4.3,48,0.00,,,0.00,WUHU216HW,2013-07-02 11:43:00,
2013-07-02 13:48:00,80.3,57.5,29.83,NNW,338,3.1,3.6,46,0.00,,,0.00,WUHU216HW,2013-07-02 11:48:00,
2013-07-02 13:53:00,80.3,57.5,29.83,NW,315,3.4,4.7,46,0.00,,,0.00,WUHU216HW,2013-07-02 11:53:00,
2013-07-02 13:58:00,80.3,57.5,29.83,NNW,338,3.4,4.7,46,0.00,,,0.00,WUHU216HW,2013-07-02 11:58:00,
2013-07-02 14:03:00,80.3,56.9,29.83,NNW,338,1.8,4.0,45,0.00,,,0.00,WUHU216HW,2013-07-02 12:03:00,
2013-07-02 14:08:00,80.5,57.7,29.82,NW,315,2.9,4.0,46,0.00,,,0.00,WUHU216HW,2013-07-02 12:08:00,
2013-07-02 14:13:00,80.6,57.2,29.82,NW,315,3.4,4.7,45,0.00,,,0.00,WUHU216HW,2013-07-02 12:13:00,
2013-07-02 14:18:00,80.6,57.9,29.82,SW,225,1.6,4.7,46,0.00,,,0.00,WUHU216HW,2013-07-02 12:18:00,
2013-07-02 14:23:00,80.6,56.6,29.82,NW,315,3.4,4.7,44,0.00,,,0.00,WUHU216HW,2013-07-02 12:23:00,
2013-07-02 14:28:00,80.5,56.4,29.82,North,0,1.1,4.5,44,0.00,,,0.00,WUHU216HW,2013-07-02 12:28:00,
2013-07-02 14:33:00,80.3,56.4,29.82,NW,315,4.0,4.3,44,0.00,,,0.00,WUHU216HW,2013-07-02 12:33:00,
2013-07-02 14:38:00,80.1,56.2,29.82,NW,315,2.9,4.5,44,0.00,,,0.00,WUHU216HW,2013-07-02 12:38:00,
2013-07-02 14:43:00,80.1,56.2,29.82,West,270,2.7,4.9,44,0.00,,,0.00,WUHU216HW,2013-07-02 12:43:00,
2013-07-02 14:48:00,79.9,56.6,29.82,WNW,293,1.8,4.9,45,0.00,,,0.00,WUHU216HW,2013-07-02 12:48:00,
2013-07-02 14:53:00,80.1,56.8,29.82,West,270,1.1,5.1,45,0.00,,,0.00,WUHU216HW,2013-07-02 12:53:00,
2013-07-02 14:58:00,80.5,57.7,29.82,WSW,248,1.8,5.1,46,0.00,,,0.00,WUHU216HW,2013-07-02 12:58:00,
2013-07-02 15:03:00,80.6,56.6,29.82,NW,315,2.2,4.0,44,0.00,,,0.00,WUHU216HW,2013-07-02 13:03:00,
2013-07-02 15:08:00,80.5,56.4,29.82,NW,315,2.0,5.1,44,0.00,,,0.00,WUHU216HW,2013-07-02 13:08:00,
2013-07-02 15:13:00,80.3,56.9,29.82,WNW,293,1.1,5.1,45,0.00,,,0.00,WUHU216HW,2013-07-02 13:13:00,
2013-07-02 15:18:00,80.5,57.1,29.82,NW,315,1.3,4.7,45,0.00,,,0.00,WUHU216HW,2013-07-02 13:18:00,
2013-07-02 15:23:00,80.5,57.1,29.81,NE,45,1.6,5.6,45,0.00,,,0.00,WUHU216HW,2013-07-02 13:23:00,
2013-07-02 15:28:00,80.5,57.1,29.81,West,270,0.7,5.6,45,0.00,,,0.00,WUHU216HW,2013-07-02 13:28:00,
2013-07-02 15:33:00,80.6,58.5,29.81,NNW,338,3.6,3.6,47,0.00,,,0.00,WUHU216HW,2013-07-02 13:33:00,
2013-07-02 15:38:00,80.6,57.2,29.81,WNW,293,1.8,4.0,45,0.00,,,0.00,WUHU216HW,2013-07-02 13:38:00,
2013-07-02 15:43:00,80.6,57.9,29.82,SW,225,2.7,4.3,46,0.00,,,0.00,WUHU216HW,2013-07-02 13:43:00,
2013-07-02 15:48:00,80.5,57.1,29.82,WNW,293,1.1,4.3,45,0.00,,,0.00,WUHU216HW,2013-07-02 13:48:00,
2013-07-02 15:53:00,80.6,57.2,29.82,North,0,3.1,4.0,45,0.00,,,0.00,WUHU216HW,2013-07-02 13:53:00,
2013-07-02 15:58:00,80.3,56.4,29.82,NNW,338,4.5,5.4,44,0.00,,,0.00,WUHU216HW,2013-07-02 13:58:00,
2013-07-02 16:03:00,80.1,56.2,29.82,NW,315,2.0,5.4,44,0.00,,,0.00,WUHU216HW,2013-07-02 14:03:00,
2013-07-02 16:08:00,79.9,56.6,29.82,NW,315,0.9,4.5,45,0.00,,,0.00,WUHU216HW,2013-07-02 14:08:00,
2013-07-02 16:13:00,80.1,56.8,29.82,NW,315,1.6,4.7,45,0.00,,,0.00,WUHU216HW,2013-07-02 14:13:00,
2013-07-02 16:18:00,80.3,56.4,29.82,West,270,1.1,6.7,44,0.00,,,0.00,WUHU216HW,2013-07-02 14:18:00,
2013-07-02 16:23:00,80.3,56.9,29.82,West,270,1.1,6.7,45,0.00,,,0.00,WUHU216HW,2013-07-02 14:23:00,
2013-07-02 16:28:00,80.6,57.2,29.81,West,270,1.8,5.1,45,0.00,,,0.00,WUHU216HW,2013-07-02 14:28:00,
2013-07-02 16:33:00,80.6,57.2,29.81,North,0,0.7,4.7,45,0.00,,,0.00,WUHU216HW,2013-07-02 14:33:00,
2013-07-02 16:38:00,80.6,57.2,29.81,WNW,293,3.6,3.6,45,0.00,,,0.00,WUHU216HW,2013-07-02 14:38:00,
2013-07-02 16:43:00,80.8,57.4,29.81,NW,315,1.6,3.8,45,0.00,,,0.00,WUHU216HW,2013-07-02 14:43:00,
2013-07-02 16:48:00,80.6,57.2,29.81,NW,315,1.1,4.0,45,0.00,,,0.00,WUHU216HW,2013-07-02 14:48:00,
2013-07-02 16:53:00,80.8,57.4,29.81,NW,315,1.1,4.0,45,0.00,,,0.00,WUHU216HW,2013-07-02 14:53:00,
2013-07-02 16:58:00,80.8,56.2,29.81,NNW,338,0.9,8.5,43,0.00,,,0.00,WUHU216HW,2013-07-02 14:58:00,
2013-07-02 17:03:00,80.6,56.0,29.81,WNW,293,2.5,8.5,43,0.00,,,0.00,WUHU216HW,2013-07-02 15:03:00,
2013-07-02 17:08:00,80.6,56.6,29.81,West,270,1.1,3.4,44,0.00,,,0.00,WUHU216HW,2013-07-02 15:08:00,
2013-07-02 17:13:00,80.8,56.8,29.81,NW,315,0.9,3.4,44,0.00,,,0.00,WUHU216HW,2013-07-02 15:13:00,
2013-07-02 17:18:00,81.0,57.6,29.81,SW,225,1.3,3.1,45,0.00,,,0.00,WUHU216HW,2013-07-02 15:18:00,
2013-07-02 17:23:00,81.4,57.9,29.81,West,270,2.0,2.5,45,0.00,,,0.00,WUHU216HW,2013-07-02 15:23:00,
2013-07-02 17:28:00,81.4,57.2,29.80,NW,315,1.6,2.5,44,0.00,,,0.00,WUHU216HW,2013-07-02 15:28:00,
2013-07-02 17:33:00,81.4,57.2,29.80,NW,315,2.9,3.4,44,0.00,,,0.00,WUHU216HW,2013-07-02 15:33:00,
2013-07-02 17:38:00,81.2,57.7,29.80,WSW,248,1.8,4.5,45,0.00,,,0.00,WUHU216HW,2013-07-02 15:38:00,
2013-07-02 17:43:00,81.0,57.0,29.80,West,270,2.9,4.5,44,0.00,,,0.00,WUHU216HW,2013-07-02 15:43:00,
2013-07-02 17:48:00,81.0,57.0,29.80,NW,315,2.9,3.6,44,0.00,,,0.00,WUHU216HW,2013-07-02 15:48:00,
2013-07-02 17:53:00,80.8,57.4,29.80,WSW,248,1.1,3.6,45,0.00,,,0.00,WUHU216HW,2013-07-02 15:53:00,
2013-07-02 17:58:00,80.6,57.9,29.80,WSW,248,1.3,3.1,46,0.00,,,0.00,WUHU216HW,2013-07-02 15:58:00,
2013-07-02 18:03:00,80.1,56.8,29.80,WNW,293,1.1,4.3,45,0.00,,,0.00,WUHU216HW,2013-07-02 16:03:00,
2013-07-02 18:08:00,79.7,56.4,29.80,WSW,248,1.1,4.3,45,0.00,,,0.00,WUHU216HW,2013-07-02 16:08:00,
2013-07-02 18:13:00,79.6,57.5,29.80,WSW,248,1.3,3.6,47,0.00,,,0.00,WUHU216HW,2013-07-02 16:13:00,
2013-07-02 18:18:00,79.2,57.8,29.79,WSW,248,1.1,2.2,48,0.00,,,0.00,WUHU216HW,2013-07-02 16:18:00,
2013-07-02 18:23:00,79.0,57.6,29.79,West,270,1.1,1.8,48,0.00,,,0.00,WUHU216HW,2013-07-02 16:23:00,
2013-07-02 18:28:00,78.5,56.5,29.79,NW,315,1.3,2.7,47,0.00,,,0.00,WUHU216HW,2013-07-02 16:28:00,
2013-07-02 18:33:00,78.3,57.6,29.79,NW,315,2.5,2.7,49,0.00,,,0.00,WUHU216HW,2013-07-02 16:33:00,
2013-07-02 18:38:00,78.3,58.2,29.79,WNW,293,0.4,2.5,50,0.00,,,0.00,WUHU216HW,2013-07-02 16:38:00,
2013-07-02 18:43:00,78.5,57.8,29.79,NW,315,1.3,2.5,49,0.00,,,0.00,WUHU216HW,2013-07-02 16:43:00,
2013-07-02 18:48:00,78.5,57.8,29.79,NW,315,0.4,2.5,49,0.00,,,0.00,WUHU216HW,2013-07-02 16:48:00,
2013-07-02 18:53:00,78.5,57.8,29.79,WSW,248,0.7,2.5,49,0.00,,,0.00,WUHU216HW,2013-07-02 16:53:00,
2013-07-02 18:58:00,78.5,57.8,29.79,WSW,248,0.4,1.8,49,0.00,,,0.00,WUHU216HW,2013-07-02 16:58:00,
2013-07-02 19:03:00,78.5,57.8,29.79,WNW,293,0.7,1.8,49,0.00,,,0.00,WUHU216HW,2013-07-02 17:03:00,
2013-07-02 19:08:00,78.5,58.3,29.79,SW,225,0.4,1.8,50,0.00,,,0.00,WUHU216HW,2013-07-02 17:08:00,
2013-07-02 19:13:00,78.1,58.1,29.79,SW,225,0.4,1.1,50,0.00,,,0.00,WUHU216HW,2013-07-02 17:13:00,
2013-07-02 19:18:00,78.1,58.6,29.79,SW,225,0.0,0.7,51,0.00,,,0.00,WUHU216HW,2013-07-02 17:18:00,
2013-07-02 19:23:00,77.9,58.4,29.79,West,270,0.2,0.9,51,0.00,,,0.00,WUHU216HW,2013-07-02 17:23:00,
2013-07-02 19:28:00,77.9,58.9,29.79,WSW,248,0.0,0.9,52,0.00,,,0.00,WUHU216HW,2013-07-02 17:28:00,
2013-07-02 19:33:00,77.9,59.4,29.79,WSW,248,0.4,0.7,53,0.00,,,0.00,WUHU216HW,2013-07-02 17:33:00,
2013-07-02 19:38:00,77.9,59.4,29.79,SW,225,0.4,1.8,53,0.00,,,0.00,WUHU216HW,2013-07-02 17:38:00,
2013-07-02 19:43:00,77.8,59.2,29.79,SW,225,1.1,1.8,53,0.00,,,0.00,WUHU216HW,2013-07-02 17:43:00,
2013-07-02 19:48:00,77.8,59.2,29.79,SW,225,1.1,1.6,53,0.00,,,0.00,WUHU216HW,2013-07-02 17:48:00,
2013-07-02 19:53:00,77.4,59.0,29.79,SW,225,1.6,2.0,53,0.00,,,0.00,WUHU216HW,2013-07-02 17:53:00,
2013-07-02 19:58:00,77.2,58.8,29.79,SW,225,0.4,2.0,53,0.00,,,0.00,WUHU216HW,2013-07-02 17:58:00,
2013-07-02 20:03:00,76.9,59.0,29.80,SW,225,0.4,1.6,54,0.00,,,0.00,WUHU216HW,2013-07-02 18:03:00,
2013-07-02 20:08:00,76.7,58.8,29.79,SW,225,0.4,1.1,54,0.00,,,0.00,WUHU216HW,2013-07-02 18:08:00,
2013-07-02 20:13:00,76.3,59.0,29.79,SSW,203,0.4,1.1,55,0.00,,,0.00,WUHU216HW,2013-07-02 18:13:00,
2013-07-02 20:18:00,75.8,59.0,29.79,South,180,0.0,1.1,56,0.00,,,0.00,WUHU216HW,2013-07-02 18:18:00,
2013-07-02 20:23:00,75.4,58.6,29.79,SW,225,0.7,1.1,56,0.00,,,0.00,WUHU216HW,2013-07-02 18:23:00,
2013-07-02 20:28:00,74.9,58.2,29.79,SW,225,0.7,1.1,56,0.00,,,0.00,WUHU216HW,2013-07-02 18:28:00,
2013-07-02 20:33:00,74.5,58.2,29.79,SW,225,0.4,0.9,57,0.00,,,0.00,WUHU216HW,2013-07-02 18:33:00,
2013-07-02 20:38:00,74.0,57.7,29.78,SE,135,0.9,1.3,57,0.00,,,0.00,WUHU216HW,2013-07-02 18:38:00,
2013-07-02 20:43:00,73.8,57.5,29.78,SE,135,1.3,1.3,57,0.00,,,0.00,WUHU216HW,2013-07-02 18:43:00,
2013-07-02 20:48:00,73.3,57.0,29.78,SE,135,1.1,1.3,57,0.00,,,0.00,WUHU216HW,2013-07-02 18:48:00,
2013-07-02 20:53:00,72.9,56.7,29.78,SE,135,0.9,1.3,57,0.00,,,0.00,WUHU216HW,2013-07-02 18:53:00,
2013-07-02 20:58:00,72.5,56.9,29.78,SE,135,1.3,1.3,58,0.00,,,0.00,WUHU216HW,2013-07-02 18:58:00,
2013-07-02 21:03:00,72.2,56.5,29.78,SE,135,1.3,1.8,58,0.00,,,0.00,WUHU216HW,2013-07-02 19:03:00,
2013-07-02 21:08:00,71.8,56.3,29.79,SE,135,1.1,1.8,58,0.00,,,0.00,WUHU216HW,2013-07-02 19:08:00,
2013-07-02 21:13:00,71.3,56.3,29.78,SE,135,1.3,1.8,59,0.00,,,0.00,WUHU216HW,2013-07-02 19:13:00,
2013-07-02 21:18:00,70.9,55.9,29.78,SE,135,1.6,2.5,59,0.00,,,0.00,WUHU216HW,2013-07-02 19:18:00,
2013-07-02 21:23:00,70.6,55.6,29.78,SE,135,1.1,2.5,59,0.00,,,0.00,WUHU216HW,2013-07-02 19:23:00,
2013-07-02 21:28:00,70.2,55.3,29.78,SE,135,1.3,2.0,59,0.00,,,0.00,WUHU216HW,2013-07-02 19:28:00,
2013-07-02 21:33:00,69.8,54.9,29.79,SE,135,1.1,1.8,59,0.00,,,0.00,WUHU216HW,2013-07-02 19:33:00,
2013-07-02 21:38:00,69.5,54.5,29.79,SE,135,2.0,2.5,59,0.00,,,0.00,WUHU216HW,2013-07-02 19:38:00,
2013-07-02 21:43:00,69.3,54.9,29.79,SE,135,1.1,2.5,60,0.00,,,0.00,WUHU216HW,2013-07-02 19:43:00,
2013-07-02 21:48:00,68.9,54.5,29.79,SE,135,0.9,2.2,60,0.00,,,0.00,WUHU216HW,2013-07-02 19:48:00,
2013-07-02 21:53:00,68.6,54.2,29.79,SE,135,0.9,1.8,60,0.00,,,0.00,WUHU216HW,2013-07-02 19:53:00,
2013-07-02 21:58:00,68.4,54.0,29.79,SE,135,0.7,1.8,60,0.00,,,0.00,WUHU216HW,2013-07-02 19:58:00,
2013-07-02 22:03:00,68.2,54.3,29.79,SE,135,0.9,1.8,61,0.00,,,0.00,WUHU216HW,2013-07-02 20:03:00,
2013-07-02 22:08:00,68.0,54.1,29.78,SE,135,1.1,1.8,61,0.00,,,0.00,WUHU216HW,2013-07-02 20:08:00,
2013-07-02 22:13:00,67.7,53.7,29.79,SE,135,0.7,1.8,61,0.00,,,0.00,WUHU216HW,2013-07-02 20:13:00,
2013-07-02 22:18:00,67.5,53.6,29.78,SSE,158,1.3,2.2,61,0.00,,,0.00,WUHU216HW,2013-07-02 20:18:00,
2013-07-02 22:23:00,67.3,53.8,29.79,SE,135,0.7,2.5,62,0.00,,,0.00,WUHU216HW,2013-07-02 20:23:00,
2013-07-02 22:28:00,67.0,53.6,29.78,SE,135,0.0,2.5,62,0.00,,,0.00,WUHU216HW,2013-07-02 20:28:00,
2013-07-02 22:33:00,66.8,53.4,29.78,NE,45,0.4,1.1,62,0.00,,,0.00,WUHU216HW,2013-07-02 20:33:00,
2013-07-02 22:38:00,66.6,53.7,29.78,ESE,113,0.0,0.9,63,0.00,,,0.00,WUHU216HW,2013-07-02 20:38:00,
2013-07-02 22:43:00,66.1,53.1,29.78,NNW,338,0.2,1.8,63,0.00,,,0.00,WUHU216HW,2013-07-02 20:43:00,
2013-07-02 22:48:00,65.5,53.0,29.79,NNW,338,0.0,1.8,64,0.00,,,0.00,WUHU216HW,2013-07-02 20:48:00,
2013-07-02 22:53:00,65.3,53.3,29.78,NE,45,0.4,1.1,65,0.00,,,0.00,WUHU216HW,2013-07-02 20:53:00,
2013-07-02 22:58:00,65.3,53.3,29.79,NE,45,0.0,0.9,65,0.00,,,0.00,WUHU216HW,2013-07-02 20:58:00,
2013-07-02 23:03:00,65.2,53.1,29.79,ESE,113,0.7,0.7,65,0.00,,,0.00,WUHU216HW,2013-07-02 21:03:00,
2013-07-02 23:08:00,65.2,53.1,29.79,ESE,113,0.2,1.3,65,0.00,,,0.00,WUHU216HW,2013-07-02 21:08:00,
2013-07-02 23:13:00,65.2,53.1,29.78,SSE,158,0.4,1.3,65,0.00,,,0.00,WUHU216HW,2013-07-02 21:13:00,
2013-07-02 23:18:00,65.2,53.5,29.78,SSE,158,0.7,0.7,66,0.00,,,0.00,WUHU216HW,2013-07-02 21:18:00,
2013-07-02 23:23:00,65.2,53.5,29.78,SSE,158,0.0,0.9,66,0.00,,,0.00,WUHU216HW,2013-07-02 21:23:00,
2013-07-02 23:28:00,65.2,53.5,29.78,SSE,158,0.9,1.1,66,0.00,,,0.00,WUHU216HW,2013-07-02 21:28:00,
2013-07-02 23:33:00,65.0,53.3,29.78,SSE,158,0.4,1.1,66,0.00,,,0.00,WUHU216HW,2013-07-02 21:33:00,
2013-07-02 23:38:00,64.8,53.6,29.78,SSE,158,1.1,1.1,67,0.00,,,0.00,WUHU216HW,2013-07-02 21:38:00,
2013-07-02 23:43:00,64.8,53.6,29.78,SSE,158,0.0,1.1,67,0.00,,,0.00,WUHU216HW,2013-07-02 21:43:00,
2013-07-02 23:48:00,64.6,53.4,29.78,SSE,158,0.0,1.1,67,0.00,,,0.00,WUHU216HW,2013-07-02 21:48:00,
2013-07-02 23:53:00,64.4,53.3,29.78,SSE,158,0.0,0.2,67,0.00,,,0.00,WUHU216HW,2013-07-02 21:53:00,
2013-07-02 23:58:00,64.4,53.6,29.78,SSE,158,0.4,0.4,68,0.00,,,0.00,WUHU216HW,2013-07-02 21:58:00,